This is the latest recevied weather packets stored in our database for station/object AB4KY. If no packets are shown the sender has not sent any weather packets the latest 10 day(s).
| Time | Temp. | Humidity | Pressure | Rain* | Wind** | Luminosity | Snow |
|---|---|---|---|---|---|---|---|
| 1777405350 | 23.89° C | 71% | 1012.6 hPa | 0 mm | - | 440 W/m² | - |
| 1777405045 | 23.89° C | 69% | 1012.6 hPa | 0 mm | - | 609 W/m² | - |
| 1777404740 | 24.44° C | 72% | 1012.6 hPa | 0 mm | - | 597 W/m² | - |
| 1777404436 | 23.89° C | 73% | 1012.6 hPa | 0 mm | - | 632 W/m² | - |
| 1777404132 | 23.89° C | 72% | 1012.4 hPa | 0 mm | - | 551 W/m² | - |
| 1777403828 | 23.89° C | 75% | 1012.7 hPa | 0 mm | - | 629 W/m² | - |
| 1777403523 | 23.33° C | 74% | 1012.6 hPa | 0 mm | - | 606 W/m² | - |
| 1777403216 | 23.89° C | 73% | 1012.3 hPa | 0 mm | - | 559 W/m² | - |
| 1777402912 | 23.33° C | 76% | 1012.4 hPa | 0 mm | - | 573 W/m² | - |
| 1777402608 | 22.78° C | 74% | 1012.3 hPa | 0 mm | - | 157 W/m² | - |
| 1777402306 | 23.33° C | 76% | 1012.4 hPa | 0 mm | - | 637 W/m² | - |
| 1777402000 | 23.33° C | 75% | 1012.4 hPa | 0 mm | - | 674 W/m² | - |
| 1777401699 | 23.33° C | 78% | 1012.5 hPa | 0 mm | - | 614 W/m² | - |
| 1777401396 | 22.78° C | 78% | 1012.3 hPa | 0 mm | - | 559 W/m² | - |
| 1777401092 | 22.78° C | 79% | 1012.6 hPa | 0 mm | - | 667 W/m² | - |
| 1777400787 | 22.22° C | 79% | 1012.5 hPa | 0 mm | - | 681 W/m² | - |
| 1777400484 | 22.22° C | 80% | 1012.3 hPa | 0 mm | - | 718 W/m² | - |
| 1777400181 | 22.22° C | 79% | 1012.8 hPa | 0 mm | - | 766 W/m² | - |
| 1777399877 | 22.78° C | 81% | 1012.7 hPa | 0 mm | - | 716 W/m² | - |
| 1777399575 | 22.22° C | 83% | 1012.8 hPa | 0 mm | - | 318 W/m² | - |
| 1777399271 | 22.78° C | 81% | 1012.7 hPa | 0 mm | - | 267 W/m² | - |
| 1777398970 | 21.67° C | 83% | 1012.8 hPa | 0 mm | - | 270 W/m² | - |
| 1777398666 | 21.67° C | 84% | 1012.8 hPa | 0 mm | - | 661 W/m² | - |
| 1777398363 | 21.67° C | 85% | 1013.1 hPa | 0 mm | - | 694 W/m² | - |
| 1777398059 | 21.67° C | 83% | 1013.1 hPa | 0 mm | - | 443 W/m² | - |
* Rain latest hour (hover to see other rain measurements)
** Current wind speed in m/s (hover to see current wind gust speed)